This is the latest recevied weather packets stored in our database for station/object AG1T-20. If no packets are shown the sender has not sent any weather packets the latest 10 day(s).
| Time | Temp. | Humidity | Pressure | Rain* | Wind** | Luminosity | Snow |
|---|---|---|---|---|---|---|---|
| 1787517604 | 31.67° C | 29% | 1021.7 hPa | 0 mm | - | 651 W/m² | - |
| 1787517004 | 31.67° C | 29% | 1021.7 hPa | 0 mm | - | 675 W/m² | - |
| 1787516405 | 30.56° C | 31% | 1021.7 hPa | 0 mm | - | 695 W/m² | - |
| 1787515805 | 31.11° C | 29% | 1021.7 hPa | 0 mm | - | 715 W/m² | - |
| 1787515204 | 31.67° C | 29% | 1021.7 hPa | 0 mm | - | 736 W/m² | - |
| 1787514605 | 31.67° C | 30% | 1022.5 hPa | 0 mm | - | 755 W/m² | - |
| 1787514004 | 31.67° C | 31% | 1022.5 hPa | 0 mm | - | 773 W/m² | - |
| 1787513405 | 31.11° C | 32% | 1022.5 hPa | 0 mm | - | 785 W/m² | - |
| 1787512804 | 30.56° C | 31% | 1022.5 hPa | 0 mm | - | 805 W/m² | - |
| 1787512205 | 30° C | 33% | 1022.5 hPa | 0 mm | - | 829 W/m² | - |
| 1787511604 | 30° C | 35% | 1022.5 hPa | 0 mm | - | 854 W/m² | - |
| 1787511005 | 28.89° C | 37% | 1023 hPa | 0 mm | - | 855 W/m² | - |
| 1787510405 | 28.89° C | 38% | 1023 hPa | 0 mm | - | 866 W/m² | - |
| 1787509805 | 27.78° C | 39% | 1023 hPa | 0 mm | - | 855 W/m² | - |
| 1787509205 | 28.89° C | 40% | 1023 hPa | 0 mm | - | 854 W/m² | - |
| 1787508605 | 27.78° C | 39% | 1023 hPa | 0 mm | - | 857 W/m² | - |
| 1787508004 | 27.78° C | 39% | 1023 hPa | 0 mm | - | 857 W/m² | - |
| 1787507405 | 27.78° C | 40% | 1023 hPa | 0 mm | - | 864 W/m² | - |
| 1787506805 | 27.22° C | 39% | 1023 hPa | 0 mm | - | 858 W/m² | - |
| 1787506205 | 27.22° C | 40% | 1023 hPa | 0 mm | - | 856 W/m² | - |
| 1787505604 | 27.22° C | 40% | 1023 hPa | 0 mm | - | 851 W/m² | - |
| 1787505004 | 26.11° C | 44% | 1023 hPa | 0 mm | - | 842 W/m² | - |
| 1787504404 | 27.22° C | 42% | 1023 hPa | 0 mm | - | 833 W/m² | - |
| 1787503805 | 26.11° C | 45% | 1023.3 hPa | 0 mm | - | 822 W/m² | - |
| 1787503205 | 25.56° C | 43% | 1023.3 hPa | 0 mm | - | 811 W/m² | - |
* Rain latest hour (hover to see other rain measurements)
** Current wind speed in m/s (hover to see current wind gust speed)